Location: Lombard
(41.8800°N, 88.0080°W)
Time: 00:00:09
(UTC-05:00)

Tiros 1 - Pass Details

Date: 02 February 2023
Orbit: 628 x 662 km, 48.4° (Epoch: 20 March)

Event Time Altitude Azimuth Distance (km) Brightness Sun altitude
Rises 23:22:47 0° 212° (SSW) 2,895 - -63.1°
Reaches altitude 10° 23:25:15 10° 203° (SSW) 1,992 - -63.3°
Maximum altitude 23:29:21 32° 139° (SE) 1,068 - -63.5°
Drops below altitude 10° 23:33:28 10° 76° (ENE) 2,011 - -63.8°
Sets 23:35:58 0° 67° (ENE) 2,927 - -63.9°
